GALAXY 15 (G-15)

Last updated on Fri Dec 29 2023 00:02:43 GMT+0000 (Coordinated Universal Time)

1 28884U 05041A 23362.48165938 -.00000256 00000+0 00000+0 0 9992 2 28884 1.1828 85.2805 0013992 121.2082 220.3508 0.98943542 66534

Satellite not in orbit

GALAXY 15 (G-15)